Regional Weather Roundup
Issued by NWS

Home | Current Version | Previous Version | Text Only | Print | Product List | Glossary On
Versions: 1 2 3 4 5 6 7 8 9 10 11 12 13 14 15 16 17 18 19 20 21 22 23 24 25 26 27 28 29 30 31 32 33 34 35 36 37 38 39 40 41 42 43 44 45 46 47 48 49 50
000
ASUS45 KBOU 200510
RWRCO

WEATHER ROUNDUP FOR COLORADO
NATIONAL WEATHER SERVICE DENVER/BOULDER CO
1000 PM MST SAT JAN 19 2019

NOTE: "FAIR" INDICATES FEW OR NO CLOUDS BELOW 12000 FEET WITH NO
SIGNIFICANT WEATHER AND/OR OBSTRUCTIONS TO VISIBILITY.

COZ001>005-013-030-031-200600-
...NORTHWEST COLORADO...

CITY           SKY/WX    TMP DP  RH WIND       PRES   REMARKS
CRAIG          MOCLDY    27  21  78 CALM      30.32F
HAYDEN         FLURRIES  27  21  78 E13       30.33F WCI  16
MEEKER         FAIR      22  18  85 CALM      30.34S
RANGELY        FAIR      10   8  92 CALM      30.38S
RABBIT EARS PA LGT SNOW N/A N/A N/A SW7       30.30S VSB 3/4
STEAMBOAT SPGS CLOUDY    24  21  91 CALM      30.33S
WALDEN         FAIR      25  18  74 S9        30.28F WCI  15
$$

COZ006>008-011-200600-
...WEST CENTRAL VALLEYS...

CITY           SKY/WX    TMP DP  RH WIND       PRES   REMARKS
GRAND JUNCTION FAIR      31  28  89 NE5       30.39S WCI  26
MONTROSE       FAIR      22  15  75 SE8       30.42R WCI  12
EAGLE          CLOUDY    30  24  78 E8        30.38F WCI  22
RIFLE          FAIR      30  24  78 CALM      30.39S
DELTA          FAIR      31  26  81 NE5       30.41R WCI  27
NUCLA          FAIR      28  21  74 E10       30.41S WCI  19
$$

COZ017>023-064>068-200600-
...SOUTHWEST COLORADO...

CITY           SKY/WX    TMP DP  RH WIND       PRES   REMARKS
DURANGO        FAIR      16  13  88 CALM      30.35S
CORTEZ         FAIR      26  20  77 NE10      30.37R WCI  16
PAGOSA SPRINGS FAIR      18  17  95 CALM      30.36S
TELLURIDE      FAIR      23  18  80 E3        30.37S
WOLF CREEK PAS FAIR      23  14  68 CALM      30.42R
$$

COZ009-010-012-014-032>034-037-058>063-200600-
...CENTRAL COLORADO...

CITY           SKY/WX    TMP DP  RH WIND       PRES   REMARKS
ASPEN          CLOUDY    27  19  72 N3        30.35S
BUENA VISTA    FAIR      31  18  59 W9G17     30.29R WCI  23
COPPER MTN     CLOUDY    23  18  80 W15       30.33F WCI  10
BERTHOUD PASS  CLOUDY    12   1  62 NW37      30.21F WCI -11
COTTONWOOD PAS FAIR      28  18  64 SE5       30.30S WCI  23
GUNNISON       FAIR       2  -1  88 CALM      30.41S
GRANBY         CLOUDY    24  19  81 NE5       30.34S WCI  18
KREMMLING      CLOUDY    27  21  80 E7        30.35S WCI  19
LEADVILLE      MOCLDY    14  12  92 NE7       30.32F WCI   4
MONARCH PASS   CLOUDY    14  10  85 SW26G33   30.41F WCI  -6
SALIDA         FAIR      30  13  49 W10       30.38S WCI  21
SUNLIGHT       CLOUDY   N/A N/A N/A SW5G120   30.40S
WILKERSON PASS MOCLDY    25  14  63 NW13G21   30.28F WCI  13
$$

COZ069>075-200600-
...SAN LUIS VALLEY/SANGRE DE CRISTO MOUNTAINS...

CITY           SKY/WX    TMP DP  RH WIND       PRES   REMARKS
ALAMOSA        FAIR      -1  -4  87 CALM      30.36R
DEL NORTE      FAIR      16   5  60 W12       30.35R WCI   3
LA VETA PASS   NOT AVBL
SAGUACHE       FAIR      19  10  68 CALM      30.35S
$$

COZ035-036-038>040-200600-
...NORTHERN COLORADO FRONT RANGE...

CITY           SKY/WX    TMP DP  RH WIND       PRES   REMARKS
DENVER INTL AP FAIR      34  23  64 SW12      30.12F WCI  25
AURORA         PTCLDY    32  20  61 SW5       30.14F WCI  28
FRONT RANGE AP FAIR      33  24  69 SW6       30.12F WCI  28
ERIE MUNI ARPT FAIR      29  24  81 CALM      30.18S
BOULDER MUN AP FAIR      41  21  45 W5        30.11S
CENTENNIAL     MOCLDY    28  18  66 W7        30.14F WCI  21
BROOMFIELD     FAIR      43  25  49 W25G32    30.13S
FORT COLLINS   FAIR      28  22  78 SW6       30.13F WCI  22
LONGMONT       FAIR      30  22  71 NE5       30.14R WCI  25
$$

COZ041-046-047-076>085-087-088-200600-
...PIKES PEAK/PALMER DIVIDE AND SOUTHERN FOOTHILLS...

CITY           SKY/WX    TMP DP  RH WIND       PRES   REMARKS
COLO. SPRINGS  FAIR      31  18  58 W3        30.17S
A. F. ACADEMY  FAIR      25  16  68 CALM      30.14F
SCHRIEVER AFB  NOT AVBL
CHEYENNE MTN   FAIR      36  18  47 NW3       30.11S
ELLICOTT         N/A    N/A N/A N/A CALM      30.16S
FALCON         FAIR      30  18  61 NW8       30.16S WCI  22
FORT CARSON    FAIR      27  17  66 NW6       30.16S WCI  20
LIMON          FAIR      21  19  92 CALM      30.16R
MONUMENT HILL  FAIR      23  12  63 SW8       30.17R WCI  14
CANON CITY     NOT AVBL
WALSENBURG     NOT AVBL
TRINIDAD       FAIR      32  19  58 CALM      30.16R
$$

COZ042>045-048>051-090-091-200600-
...NORTHEAST COLORADO...

CITY           SKY/WX    TMP DP  RH WIND       PRES   REMARKS
GREELEY ARPT   FAIR      20  13  74 W5        30.13F WCI  13
AKRON          FAIR      30  20  66 SW9       30.11S WCI  22
BURLINGTON     FAIR      30  24  78 SW15      30.15S WCI  19
WRAY           FAIR      25  18  74 SW6       30.12F WCI  18
YUMA           FAIR      25  18  74 SW7       30.11S WCI  17
STERLING       FAIR      25  18  74 SW5       30.10F WCI  19
HOLYOKE        FAIR      27  16  63 W8        30.10F WCI  18
FORT MORGAN      N/A     28  19  71 W6        30.11F WCI  21
$$

COZ086-089-092>099-200600-
...SOUTHEAST COLORADO...

CITY           SKY/WX    TMP DP  RH WIND       PRES   REMARKS
PUEBLO         FAIR      27  22  81 NW7       30.18R WCI  19
LA JUNTA       FAIR      27  24  89 N6        30.16S WCI  20
LAMAR          FAIR      25  21  85 E6        30.18R WCI  18
SPRINGFIELD      N/A     27  25  92 SW8       30.17R WCI  19
$$



USA.gov is the U.S. government's official web portal to all federal, state and local government web resources and services.